KLM2W EGCC-EHAM

Flight info

Callsign KLM2W
Flight time 0h 41m
Altitude 35000
Route DESIG L603 LAMSO
Aircraft A333/H-SDE3GHIJ2J3J5M1RVWXY/LB2D1

Departure

Time 2026-05-04 08:31
Airport Manchester Airport (EGCC)

Arrival

Time 2026-05-04 09:12
Airport Amsterdam Airport Schiphol (EHAM)
Time Latitude Longitude Altitude Speed Heading
2026-05-04 08:08 53.36373 -2.28160 251 ft 0 kts 45°
2026-05-04 08:11 53.36346 -2.28206 251 ft 4 kts 50°
2026-05-04 08:11 53.36334 -2.28236 251 ft 2 kts 65°
2026-05-04 08:12 53.36330 -2.28254 251 ft 2 kts 93°
2026-05-04 08:12 53.36333 -2.28272 251 ft 2 kts 123°
2026-05-04 08:12 53.36339 -2.28286 251 ft 2 kts 133°
2026-05-04 08:12 53.36347 -2.28299 251 ft 0 kts 136°
2026-05-04 08:13 53.36346 -2.28298 251 ft 0 kts 136°
2026-05-04 08:13 53.36346 -2.28297 251 ft 0 kts 136°
2026-05-04 08:16 53.36340 -2.28288 251 ft 6 kts 136°
2026-05-04 08:16 53.36279 -2.28186 251 ft 19 kts 135°
2026-05-04 08:17 53.36176 -2.28014 251 ft 23 kts 135°
2026-05-04 08:17 53.36066 -2.27854 251 ft 16 kts 161°
2026-05-04 08:17 53.35956 -2.27845 251 ft 16 kts 178°
2026-05-04 08:17 53.35829 -2.27860 251 ft 22 kts 185°
2026-05-04 08:19 53.35036 -2.28702 241 ft 18 kts 228°
2026-05-04 08:19 53.34953 -2.28850 235 ft 17 kts 226°
2026-05-04 08:20 53.34868 -2.28998 226 ft 19 kts 226°
2026-05-04 08:20 53.34753 -2.29067 223 ft 17 kts 173°
2026-05-04 08:20 53.34676 -2.28979 227 ft 9 kts 104°
2026-05-04 08:20 53.34685 -2.28930 230 ft 3 kts 65°
2026-05-04 08:21 53.34703 -2.28885 228 ft 4 kts 51°
2026-05-04 08:21 53.34730 -2.28825 228 ft 16 kts 52°
2026-05-04 08:21 53.34754 -2.28776 229 ft 0 kts 50°
2026-05-04 08:24 53.34828 -2.28630 237 ft 13 kts 43°
2026-05-04 08:24 53.34893 -2.28642 241 ft 10 kts 324°
2026-05-04 08:24 53.34957 -2.28728 241 ft 7 kts 321°
2026-05-04 08:24 53.34958 -2.28729 241 ft 0 kts 321°
2026-05-04 08:28 53.34971 -2.28768 238 ft 12 kts 282°
2026-05-04 08:28 53.34918 -2.28910 232 ft 17 kts 226°
2026-05-04 08:29 53.34798 -2.29068 225 ft 27 kts 191°
2026-05-04 08:29 53.34680 -2.28958 228 ft 13 kts 87°
2026-05-04 08:29 53.34732 -2.28823 228 ft 29 kts 52°
2026-05-04 08:31 53.38586 -2.20724 2322 ft 188 kts 53°
2026-05-04 08:33 53.46023 -2.04884 6648 ft 269 kts 51°
2026-05-04 08:33 53.47196 -2.02382 7430 ft 276 kts 51°
2026-05-04 08:35 53.52212 -1.80409 11882 ft 352 kts 112°
2026-05-04 08:35 53.51244 -1.76601 12630 ft 356 kts 115°
2026-05-04 08:35 53.50235 -1.72764 13338 ft 361 kts 114°
2026-05-04 08:35 53.49289 -1.68831 14034 ft 366 kts 111°
2026-05-04 08:37 53.44585 -1.43811 17935 ft 383 kts 108°
2026-05-04 08:37 53.43819 -1.39501 18514 ft 387 kts 108°
2026-05-04 08:37 53.43042 -1.35164 19014 ft 390 kts 108°
2026-05-04 08:38 53.42255 -1.30799 19589 ft 392 kts 108°
2026-05-04 08:38 53.41471 -1.26415 20131 ft 394 kts 107°
2026-05-04 08:38 53.40674 -1.22010 20596 ft 398 kts 108°
2026-05-04 08:40 53.34598 -0.88788 22865 ft 442 kts 107°
2026-05-04 08:40 53.33694 -0.83873 23375 ft 443 kts 108°
2026-05-04 08:40 53.32771 -0.78963 23731 ft 441 kts 108°
2026-05-04 08:41 53.31833 -0.74057 24013 ft 445 kts 108°
2026-05-04 08:41 53.30898 -0.69103 24379 ft 447 kts 107°
2026-05-04 08:41 53.29969 -0.64157 24768 ft 448 kts 107°
2026-05-04 08:41 53.29033 -0.59163 25016 ft 451 kts 107°
2026-05-04 08:42 53.28088 -0.54129 25044 ft 456 kts 107°
2026-05-04 08:42 53.27136 -0.49062 25046 ft 458 kts 107°
2026-05-04 08:42 53.26177 -0.43981 25049 ft 458 kts 107°
2026-05-04 08:42 53.25216 -0.38913 25047 ft 458 kts 107°
2026-05-04 08:43 53.24253 -0.33845 25047 ft 459 kts 108°
2026-05-04 08:43 53.23297 -0.28834 25046 ft 460 kts 108°
2026-05-04 08:43 53.22321 -0.23737 25046 ft 461 kts 108°
2026-05-04 08:43 53.21345 -0.18655 25047 ft 461 kts 108°
2026-05-04 08:44 53.20364 -0.13563 25047 ft 460 kts 108°
2026-05-04 08:44 53.19385 -0.08493 25048 ft 458 kts 108°
2026-05-04 08:46 53.12480 0.26802 25033 ft 459 kts 111°
2026-05-04 08:46 53.11442 0.31828 25036 ft 459 kts 110°
2026-05-04 08:46 53.10439 0.36882 25034 ft 461 kts 109°
2026-05-04 08:46 53.09447 0.41974 25034 ft 465 kts 109°
2026-05-04 08:47 53.08451 0.47101 25037 ft 466 kts 109°
2026-05-04 08:47 53.07448 0.52230 25034 ft 466 kts 110°
2026-05-04 08:47 53.06436 0.57357 25037 ft 468 kts 110°
2026-05-04 08:47 53.05407 0.62492 25030 ft 469 kts 110°
2026-05-04 08:48 53.04372 0.67652 25030 ft 470 kts 110°
2026-05-04 08:48 53.03336 0.72789 25032 ft 468 kts 110°
2026-05-04 08:48 53.02303 0.77866 25031 ft 471 kts 110°
2026-05-04 08:48 53.01263 0.83015 25035 ft 470 kts 110°
2026-05-04 08:49 53.00223 0.88166 25026 ft 471 kts 111°
2026-05-04 08:50 52.95318 1.19988 25029 ft 480 kts 102°
2026-05-04 08:50 52.94739 1.25439 25027 ft 480 kts 102°
2026-05-04 08:51 52.94163 1.30886 25027 ft 479 kts 102°
2026-05-04 08:51 52.93572 1.36323 25027 ft 479 kts 103°
2026-05-04 08:51 52.92961 1.41751 25026 ft 479 kts 103°
2026-05-04 08:51 52.92334 1.47176 25024 ft 479 kts 103°
2026-05-04 08:52 52.91696 1.52592 25013 ft 479 kts 104°
2026-05-04 08:52 52.91050 1.58010 25022 ft 480 kts 104°
2026-05-04 08:52 52.90392 1.63453 25023 ft 482 kts 104°
2026-05-04 08:52 52.89714 1.68888 25024 ft 482 kts 105°
2026-05-04 08:53 52.89037 1.74324 25019 ft 482 kts 104°
2026-05-04 08:54 52.84829 2.08843 26315 ft 390 kts 107°
2026-05-04 08:55 52.84250 2.13167 26683 ft 380 kts 107°
2026-05-04 08:55 52.83694 2.17378 27036 ft 371 kts 107°
2026-05-04 08:55 52.83151 2.21547 27020 ft 373 kts 107°
2026-05-04 08:55 52.82600 2.25813 26631 ft 387 kts 106°
2026-05-04 08:57 52.78281 2.60237 23122 ft 475 kts 103°
2026-05-04 09:01 52.64410 3.27398 22929 ft 439 kts 107°
2026-05-04 09:01 52.63665 3.32274 22855 ft 440 kts 104°
2026-05-04 09:01 52.62970 3.37221 22421 ft 449 kts 104°
2026-05-04 09:01 52.62271 3.42299 21874 ft 461 kts 104°
2026-05-04 09:02 52.61563 3.47443 21329 ft 473 kts 104°
2026-05-04 09:02 52.60826 3.52778 20770 ft 483 kts 104°
2026-05-04 09:02 52.60072 3.58209 20288 ft 489 kts 104°
2026-05-04 09:02 52.59322 3.63616 19931 ft 479 kts 103°
2026-05-04 09:03 52.58599 3.68892 19623 ft 467 kts 103°
2026-05-04 09:03 52.57931 3.73996 19428 ft 442 kts 101°
2026-05-04 09:03 52.57373 3.78780 19289 ft 411 kts 100°
2026-05-04 09:03 52.56852 3.83296 19032 ft 396 kts 100°
2026-05-04 09:04 52.56322 3.87802 18513 ft 408 kts 101°
2026-05-04 09:04 52.55779 3.92409 17812 ft 411 kts 101°
2026-05-04 09:04 52.55245 3.96982 17005 ft 403 kts 101°
2026-05-04 09:04 52.54724 4.01433 16225 ft 391 kts 101°
2026-05-04 09:05 52.54222 4.05763 15477 ft 381 kts 101°
2026-05-04 09:05 52.53731 4.09994 14745 ft 373 kts 101°
2026-05-04 09:05 52.53249 4.14127 14028 ft 365 kts 101°
2026-05-04 09:05 52.52774 4.18191 13262 ft 359 kts 101°
2026-05-04 09:06 52.52308 4.22181 12471 ft 353 kts 101°
2026-05-04 09:07 52.48932 4.48311 7174 ft 319 kts 107°
2026-05-04 09:08 52.48263 4.51757 6439 ft 315 kts 108°
2026-05-04 09:08 52.47592 4.55159 5664 ft 311 kts 108°
2026-05-04 09:08 52.46918 4.58512 4908 ft 308 kts 110°
2026-05-04 09:08 52.46058 4.61690 4195 ft 302 kts 118°
2026-05-04 09:09 52.45066 4.64696 3518 ft 297 kts 117°
2026-05-04 09:09 52.44139 4.67657 3063 ft 286 kts 117°
2026-05-04 09:09 52.43256 4.70494 2693 ft 273 kts 117°
2026-05-04 09:09 52.42289 4.73011 2308 ft 250 kts 137°
2026-05-04 09:10 52.40821 4.74298 1741 ft 236 kts 164°
2026-05-04 09:10 52.39263 4.74702 1275 ft 217 kts 182°
2026-05-04 09:10 52.37835 4.74464 959 ft 197 kts 187°
2026-05-04 09:10 52.36528 4.74282 698 ft 181 kts 181°
2026-05-04 09:11 52.35329 4.74211 469 ft 164 kts 184°
2026-05-04 09:11 52.34239 4.74099 243 ft 150 kts 182°
2026-05-04 09:11 52.33240 4.74024 61 ft 139 kts 184°
2026-05-04 09:11 52.32343 4.73936 2 ft 110 kts 184°
2026-05-04 09:12 52.31774 4.73882 2 ft 60 kts 183°
2026-05-04 09:12 52.31422 4.73849 1 ft 31 kts 184°